Theta_e
305 303 303 300 304 303 303 304 305 305 305 306 307 308 307 308 305 301 302 304 305 304 306 313 322 324 325 325 328 328 328 328 328 328 330 329 330 328 332 332 334 330 331 331
303 305 303 304 304 305 306 308 307 306 307 307 307 308 308 308 305 304 304 304 308 306 312 318 324 324 324 328 329 329 329 329 328 328 331 331 330 329 330 330 329 330 332 332
306 304 308 308 307 307 307 307 307 307 307 308 308 308 308 306 307 306 305 307 309 310 313 321 323 323 324 325 327 329 329 329 327 329 332 332 330 330 330 330 329 329 329 329
308 306 307 309 310 308 309 307 308 309 313 307 306 307 308 314 312 307 305 305 308 311 314 321 321 323 324 324 324 325 325 326 325 327 326 331 330 330 330 330 330 329 329 329
309 310 310 311 309 308 309 309 310 312 316 314 310 306 313 316 316 313 312 311 308 310 318 320 322 323 323 324 324 325 326 325 325 325 324 324 325 326 328 329 330 330 331 335
309 309 310 310 309 309 310 314 313 315 315 313 313 311 319 316 314 312 312 313 312 313 318 320 322 323 323 322 322 324 326 325 324 325 326 324 323 326 327 326 327 327 328 329
312 312 310 310 313 315 314 314 316 316 315 315 319 317 316 311 311 316 316 315 317 318 320 323 322 322 322 323 323 325 325 326 324 325 326 325 325 325 325 326 326 326 326 326
314 309 313 314 316 314 314 315 320 322 320 322 321 319 315 312 317 317 317 316 316 316 316 316 315 314 315 319 320 324 324 326 326 326 326 326 326 325 325 324 324 324 324 324
314 311 312 313 316 315 320 321 316 320 321 316 319 317 313 311 312 315 315 314 315 314 314 314 314 313 313 313 313 316 322 324 324 324 325 325 325 325 324 323 323 324 323 323
314 317 314 316 316 316 318 316 319 316 323 319 317 318 315 311 310 311 312 314 313 312 311 311 310 310 311 312 313 314 314 315 317 319 319 325 324 323 323 324 325 325 325 325
312 315 315 314 314 314 314 315 314 314 318 320 320 320 310 309 309 312 313 312 311 309 309 308 306 305 306 306 307 308 309 310 311 314 316 318 321 323 325 326 326 326 326 326
310 311 311 313 312 310 311 313 311 312 315 313 317 317 312 312 312 312 310 308 307 306 305 304 304 303 303 302 303 303 303 304 305 306 308 311 314 315 316 318 320 322 327 327
310 309 308 305 306 308 312 310 310 310 307 312 315 317 310 310 309 308 307 306 305 303 301 300 299 299 299 298 299 299 300 300 301 302 304 305 306 307 308 311 312 315 320 323
309 308 309 304 309 310 311 310 309 308 305 311 310 312 310 309 308 306 305 302 300 299 298 298 297 296 297 298 298 299 299 300 300 300 300 300 301 302 304 305 307 309 311 315
308 309 305 309 310 310 308 308 309 308 309 309 310 309 307 307 306 306 304 301 299 298 297 296 296 295 296 297 298 298 299 299 299 299 300 300 300 300 300 301 303 304 306 309
306 308 309 310 308 307 308 307 309 309 310 309 309 310 306 305 304 305 303 301 299 297 296 296 296 296 296 296 297 296 297 297 297 297 297 298 298 299 299 300 300 301 302 304
307 307 306 311 305 306 308 308 308 308 309 309 311 308 305 307 307 306 304 301 298 296 297 296 296 296 296 296 296 296 296 296 296 296 297 297 298 297 297 297 297 299 299 300
308 306 305 304 302 303 305 306 306 307 309 308 308 306 306 306 305 302 298 299 296 297 297 296 295 295 295 295 295 294 294 294 295 295 295 296 295 295 295 296 296 297 297 298
304 304 305 305 304 301 305 305 307 306 305 306 306 306 306 303 301 298 296 296 296 296 295 295 295 295 295 293 293 293 293 293 294 294 294 293 293 293 293 294 294 294 295 297
305 302 304 303 305 306 301 305 304 303 303 304 305 305 304 301 300 299 295 296 295 295 296 296 296 295 295 294 293 293 293 293 292 292 292 292 292 292 292 292 292 293 294 296
305 304 305 305 304 305 302 304 304 303 299 304 304 304 302 302 299 295 295 295 296 296 296 297 296 294 294 293 293 292 292 292 291 291 291 291 291 291 290 290 291 291 293 295
304 304 304 303 306 304 303 304 304 300 303 303 303 302 301 298 295 296 296 296 295 295 296 296 295 294 293 292 292 292 291 291 290 290 290 290 290 290 289 289 290 290 292 295
306 303 304 303 304 301 302 303 301 302 303 302 301 300 299 296 295 295 294 294 294 294 294 294 294 293 292 292 291 291 290 290 289 289 289 289 289 288 288 289 290 290 291 293
302 300 304 304 301 301 303 301 302 301 302 301 300 297 295 295 293 294 293 293 292 293 293 293 292 292 291 291 290 290 289 289 288 288 288 288 287 288 288 288 288 289 290 291
301 301 303 301 301 300 301 300 301 300 300 298 296 295 295 293 293 293 292 291 292 292 292 292 291 290 291 290 290 290 289 288 287 287 287 287 287 287 287 287 288 289 289 290
300 302 303 304 301 301 300 300 300 299 299 296 295 294 293 293 292 292 291 292 292 292 292 291 291 290 290 290 289 289 288 287 287 286 286 286 286 286 287 287 287 289 289 290
Wind_Speed
2 3 5 8 8 3 2 7 14 17 18 15 18 23 20 19 10 10 12 11 9 9 13 22 10 8 12 16 17 21 21 22 22 24 26 32 31 33 33 36 42 42 36 41
3 7 8 7 8 7 8 15 19 15 13 7 13 20 22 19 11 13 12 10 8 8 9 9 3 5 7 15 20 20 20 21 21 21 28 29 35 32 36 34 39 39 41 40
6 5 5 4 9 12 14 14 15 14 13 13 13 11 7 3 5 6 6 7 6 9 8 5 4 6 8 9 13 21 18 20 17 9 14 27 30 25 27 32 35 39 39 38
6 5 8 7 10 9 13 8 14 14 7 3 3 5 5 6 6 6 8 7 7 8 7 4 5 7 12 16 12 11 13 14 4 7 4 27 22 18 17 27 35 38 36 33
3 3 6 5 6 6 10 4 9 7 10 4 2 2 5 8 8 8 8 8 8 8 7 7 7 7 8 9 11 14 17 17 12 15 6 13 13 6 10 17 22 31 34 33
8 5 4 4 7 12 11 7 9 2 2 2 5 4 1 5 9 13 7 9 7 8 6 7 5 1 6 5 10 16 16 18 17 13 14 14 16 13 15 11 9 9 8 18
1 3 3 5 7 4 4 2 3 2 1 3 3 3 3 12 17 7 7 10 10 5 5 5 4 3 12 21 18 11 8 17 22 20 18 18 18 13 8 7 4 6 4 2
5 7 3 5 5 3 4 2 2 4 3 3 2 3 3 10 7 6 8 11 11 14 10 11 10 12 12 13 20 19 20 15 22 15 6 4 5 2 2 4 8 8 11 14
4 5 4 8 6 7 2 2 2 3 2 3 3 3 4 14 16 14 17 13 6 11 13 14 8 9 10 11 11 14 14 12 4 2 3 7 10 11 9 7 13 19 21 22
2 4 6 5 2 6 6 3 1 2 4 3 4 3 5 12 10 10 10 5 10 13 12 9 9 13 18 22 23 22 18 15 9 5 4 5 8 11 12 13 15 20 29 28
1 2 6 2 1 3 3 4 2 3 2 3 3 3 5 6 5 5 7 9 10 10 9 9 11 18 20 25 28 28 26 25 22 17 14 12 8 2 8 13 15 21 27 29
2 2 4 7 3 3 3 4 2 3 1 2 3 1 8 9 4 2 7 12 13 13 12 11 13 16 19 21 25 26 29 29 26 22 20 17 13 11 9 10 12 14 16 15
1 2 4 8 6 6 4 6 4 2 3 1 3 1 4 4 3 6 9 10 10 11 10 9 10 14 18 22 24 27 26 25 24 23 23 22 21 19 18 16 16 14 15 16
1 2 3 4 5 3 7 13 7 3 4 2 1 5 2 3 6 6 6 7 8 7 8 8 10 12 17 22 23 23 24 25 25 23 22 21 20 19 19 18 18 17 16 17
2 1 2 4 5 3 2 6 10 6 3 3 6 6 5 5 5 3 4 5 6 6 7 6 6 7 13 16 17 20 20 21 23 24 24 24 22 22 21 21 21 20 19 20
3 1 2 3 5 4 3 4 6 6 5 6 4 1 4 4 5 4 4 4 5 5 2 2 3 2 9 16 15 18 20 22 21 20 19 20 21 24 25 26 28 27 24 22
2 3 2 3 5 5 6 4 2 1 2 6 4 6 5 5 5 4 4 3 3 4 4 5 3 8 12 14 16 17 17 16 15 13 14 16 17 21 26 28 29 29 29 30
1 2 1 2 3 3 5 2 3 5 4 5 2 5 6 4 2 3 4 2 2 1 2 3 3 5 4 9 12 11 11 13 14 13 16 18 19 20 21 21 23 28 32 31
2 3 1 1 2 5 3 4 5 5 6 8 7 5 4 4 5 3 2 2 3 4 7 6 5 11 15 13 15 16 17 17 14 15 16 18 19 20 21 21 22 23 25 29
3 4 3 2 1 5 4 2 3 3 6 10 9 9 7 5 2 3 3 3 5 5 8 16 19 22 26 29 30 32 31 31 29 29 28 28 27 25 25 25 25 24 25 28
1 2 3 1 2 7 5 5 3 4 6 5 8 7 7 4 3 2 1 6 12 12 12 12 16 19 21 25 26 24 24 23 29 33 36 33 31 30 29 32 29 28 28 27
5 4 4 2 3 7 6 4 7 6 2 5 5 6 6 4 4 2 3 2 3 5 10 14 16 20 22 22 20 22 22 27 28 29 32 34 34 33 33 32 32 31 30 31
3 6 3 7 5 3 8 4 6 4 4 5 6 5 8 7 5 5 3 3 3 4 6 7 9 11 13 14 16 15 19 19 21 22 24 26 28 32 33 33 33 32 28 27
4 3 4 2 3 8 8 7 4 6 6 5 5 6 7 5 6 5 3 2 4 7 9 11 11 13 16 15 16 15 19 20 23 21 22 24 26 29 29 29 29 28 28 28
6 5 5 6 7 6 9 10 7 6 5 5 4 6 7 7 6 6 5 6 9 8 8 8 10 13 15 15 15 15 19 18 18 19 21 22 23 25 29 29 29 30 32 32
7 8 6 7 9 5 6 5 9 9 9 9 8 6 5 6 7 5 5 8 7 7 7 8 9 12 16 14 14 16 16 14 16 18 17 19 22 23 26 27 33 32 32 36
Wind_Direction
43 55 250 226 225 241 305 272 276 281 286 285 277 277 278 277 235 235 240 245 243 241 255 262 235 262 272 267 234 224 220 242 254 270 222 202 206 205 188 191 205 202 205 208
8 265 255 242 234 232 246 272 279 284 273 262 268 270 265 264 236 219 227 246 250 236 229 222 211 256 292 260 234 226 229 240 248 253 232 205 190 191 184 184 190 194 198 200
248 241 267 277 265 262 258 262 270 258 297 269 272 280 303 282 202 234 250 234 259 233 224 199 169 242 248 256 237 224 219 236 232 258 201 168 168 177 175 182 188 193 194 199
252 273 242 258 258 243 282 240 250 265 283 268 68 295 325 344 285 226 270 286 259 245 227 181 180 216 230 248 252 234 207 212 231 219 292 159 161 175 175 191 198 201 204 205
251 214 238 275 242 166 242 298 279 269 284 290 212 105 286 348 356 358 337 329 267 236 202 188 195 196 241 252 254 247 232 217 188 187 211 103 108 104 165 191 195 201 204 206
264 302 233 242 269 237 261 307 283 211 281 289 184 153 346 5 319 304 320 325 314 233 204 173 176 240 249 282 320 266 228 189 160 182 169 159 144 134 127 125 158 192 209 214
284 247 271 225 280 202 239 263 297 280 324 259 10 178 20 320 300 255 315 325 329 339 178 92 72 3 340 345 343 94 194 185 174 181 129 132 135 132 108 117 129 137 169 258
19 343 236 186 223 259 260 220 274 353 353 353 10 3 346 331 9 70 58 56 41 62 75 62 52 27 347 355 353 358 21 133 116 153 153 186 186 172 290 270 242 251 268 266
17 282 261 225 203 174 2 263 265 297 290 63 339 358 230 2 32 46 60 52 15 62 54 50 32 14 16 26 26 21 21 80 82 157 333 253 222 234 263 268 268 263 265 270
258 288 232 289 144 216 207 208 251 309 358 36 341 22 12 354 19 57 86 117 87 72 68 66 54 30 37 44 54 60 60 55 43 6 347 208 205 239 243 255 248 260 263 254
242 209 289 278 203 261 318 307 251 114 162 57 350 22 317 336 17 87 110 75 86 85 73 51 46 43 42 46 45 47 49 49 47 39 38 53 68 170 239 252 268 268 258 250
194 200 271 246 269 283 224 291 276 118 336 39 104 0 285 267 267 345 73 68 64 59 55 50 48 42 35 35 36 33 32 32 33 34 38 34 23 6 344 325 310 299 277 264
337 336 329 347 2 354 9 326 302 87 89 338 99 220 314 233 72 33 63 60 58 53 46 41 35 36 31 25 22 21 22 20 20 22 24 25 21 14 3 348 330 312 292 279
131 90 136 176 229 259 328 333 354 95 81 142 127 152 271 58 80 61 56 62 64 56 45 35 31 27 28 24 18 16 14 14 10 9 9 8 3 359 354 349 341 329 318 296
100 87 22 270 266 292 281 328 355 51 176 125 198 167 196 177 166 162 120 86 65 51 47 37 39 26 18 18 14 14 8 6 0 358 359 358 353 349 341 338 337 335 327 312
348 210 68 292 327 4 346 345 359 18 51 59 120 238 180 167 150 149 150 116 93 77 80 58 58 27 15 16 6 360 0 4 353 353 357 351 345 343 340 334 330 325 320 319
7 128 79 276 351 341 320 228 184 240 277 157 173 224 165 179 186 184 185 138 74 45 23 34 3 17 4 1 359 349 357 349 339 342 348 343 343 338 331 328 323 317 315 314
189 106 106 253 18 359 253 300 216 222 224 234 237 179 177 177 101 28 22 104 69 43 343 304 297 273 335 13 359 350 347 346 349 350 348 349 341 329 321 316 314 315 315 311
172 128 119 142 223 285 283 236 190 181 266 187 181 193 196 148 131 193 176 163 174 224 227 223 14 15 8 4 355 355 0 354 352 353 346 339 335 329 325 317 311 304 298 301
81 72 119 140 181 231 251 199 150 107 292 184 168 187 180 155 196 226 204 202 215 202 25 12 0 357 359 357 352 352 349 346 345 342 338 333 335 329 325 320 315 310 303 286
356 353 199 195 252 285 225 160 131 101 245 157 167 184 160 187 203 171 39 12 16 9 352 341 344 351 351 350 347 344 338 334 331 330 328 327 329 325 322 319 316 312 308 299
190 164 211 146 221 281 148 72 167 221 345 149 166 174 165 134 133 85 70 6 334 326 334 335 341 343 339 337 330 322 321 319 321 317 315 318 319 318 317 314 312 314 310 307
256 192 207 190 219 236 212 196 213 173 161 196 166 166 158 156 182 183 203 207 230 253 282 303 309 302 288 288 280 291 300 303 309 304 300 300 302 305 308 309 310 311 310 304
264 177 225 3 269 232 221 244 215 193 195 181 170 155 154 163 170 185 176 234 270 289 292 293 282 273 277 279 280 277 313 300 312 306 309 307 302 305 306 305 304 301 303 300
211 155 218 255 279 292 259 225 197 191 164 148 134 163 173 153 180 181 196 214 230 241 257 267 274 277 281 300 302 303 319 312 310 311 310 309 307 305 303 302 299 297 296 291
177 206 194 245 214 184 245 243 172 175 185 177 152 147 161 170 185 184 216 233 247 267 284 285 294 292 282 297 301 313 317 317 312 313 314 312 311 308 304 305 303 302 298 296